Theta_e
327 327 328 330 325 323 327 328 325 328 327 328 328 329 329 334 333 330 336 335 333 331 335 337 336 333 331 327 326 326 325 323 319 329 327 327 327 319 316 317 327 326 324 322 318 324 322 324 324
329 328 329 330 327 328 327 328 327 330 327 332 332 332 333 335 336 335 334 335 336 331 332 334 332 330 326 326 326 324 322 318 318 330 329 321 325 323 320 315 328 327 320 316 314 313 319 322 323
330 327 328 322 324 328 328 330 328 329 329 329 330 334 335 335 333 334 334 335 336 334 331 332 332 328 326 327 322 315 317 312 314 323 328 327 329 326 321 315 324 322 317 317 318 312 314 318 323
330 327 326 325 329 327 326 329 329 330 331 331 330 332 334 335 331 332 334 335 336 335 331 330 332 327 327 323 314 313 314 314 315 319 330 328 331 326 317 317 321 320 315 316 311 311 313 316 321
328 326 322 325 326 324 324 329 330 328 329 331 331 331 334 333 333 332 334 335 335 334 329 329 332 326 326 323 316 311 322 314 320 315 325 324 327 327 320 316 322 319 314 311 311 311 313 319 320
326 324 324 327 326 323 323 330 329 328 328 330 329 332 333 333 331 331 335 335 335 334 329 330 332 326 324 324 320 312 313 319 316 313 317 329 328 326 322 315 314 314 311 311 311 311 311 314 317
322 321 325 326 326 325 323 328 328 328 328 329 330 331 333 334 331 331 335 336 336 335 333 332 330 328 324 324 322 316 313 314 313 313 313 320 321 325 325 318 314 313 311 311 312 312 312 311 312
323 320 324 324 324 325 324 326 326 328 329 328 328 328 330 332 331 334 335 336 336 335 335 333 331 328 325 323 323 321 316 314 311 312 312 314 319 322 321 317 327 317 312 312 312 312 312 312 312
323 320 323 325 325 325 323 325 326 329 329 329 329 328 329 331 330 334 336 336 335 333 333 335 334 329 326 323 323 324 322 318 314 310 311 313 313 317 317 316 322 327 318 312 312 312 313 313 313
321 319 322 321 321 321 321 322 322 325 327 328 329 328 328 330 327 329 332 332 333 332 333 334 333 329 326 324 321 322 323 320 317 312 310 311 313 314 314 314 313 315 314 313 313 313 313 313 313
320 320 319 322 321 321 322 322 322 324 323 325 327 326 328 330 328 328 328 328 328 329 331 331 333 332 329 325 321 320 322 324 320 317 311 310 311 313 313 313 313 312 312 313 313 313 313 314 315
323 322 322 323 322 321 321 322 321 322 324 324 323 323 325 329 329 328 327 326 327 329 327 329 330 333 331 326 323 321 322 323 322 320 315 313 310 311 312 312 312 312 312 313 313 314 314 314 315
322 322 323 323 323 323 322 321 321 322 322 322 321 323 324 326 328 329 328 326 327 326 326 328 330 329 332 329 327 325 323 323 323 322 321 318 314 311 312 313 313 314 314 313 313 314 314 314 315
322 323 323 323 324 323 321 321 321 323 323 323 322 322 323 325 326 329 330 328 326 325 324 325 328 328 329 331 329 328 326 326 326 324 322 320 317 312 311 313 314 315 315 314 313 313 314 315 316
323 323 320 322 323 322 322 321 318 324 323 323 323 323 322 322 325 326 328 329 328 325 325 324 324 326 326 326 330 329 328 328 328 327 326 323 320 317 315 314 314 314 315 315 313 313 314 315 316
323 321 324 322 322 323 322 324 321 323 322 322 323 324 323 323 322 323 325 328 328 328 326 326 324 323 323 323 323 330 330 329 329 328 328 327 324 322 321 318 316 314 315 315 315 315 315 315 316
322 326 322 323 319 321 320 322 321 322 322 321 322 322 323 323 323 322 322 324 324 325 326 327 327 323 322 322 322 325 331 330 330 329 328 328 327 325 323 323 321 318 315 315 315 315 316 316 316
327 323 323 322 320 320 321 320 317 321 321 321 322 322 322 323 323 323 323 322 323 322 324 326 328 328 324 324 327 326 329 331 330 329 329 329 329 328 327 325 325 324 321 317 314 315 315 316 316
322 322 322 319 319 320 320 319 318 320 320 319 320 321 322 323 324 325 324 323 322 322 322 324 326 327 329 326 325 328 324 327 330 328 328 329 330 330 329 328 327 326 325 322 318 315 315 315 317
322 324 324 320 319 321 320 321 319 318 319 319 319 320 321 323 323 324 325 324 323 322 322 324 325 326 327 329 327 327 326 325 324 329 328 327 328 330 330 330 329 328 328 327 324 319 317 317 317
321 321 322 323 319 319 321 321 319 317 318 319 319 320 320 321 322 323 325 325 324 323 323 324 324 325 326 327 328 329 329 329 328 325 324 325 325 327 329 330 330 330 328 327 327 326 321 318 317
322 318 320 320 322 324 317 321 317 315 314 314 316 318 318 318 319 319 320 323 324 324 323 322 322 324 324 326 328 329 328 328 326 325 325 326 326 327 327 328 329 330 330 328 327 328 327 324 320
319 317 318 318 319 321 322 322 318 314 316 315 314 316 317 317 317 317 318 319 319 320 321 320 321 321 322 325 328 329 330 329 328 328 327 328 328 329 329 329 328 328 329 329 329 328 328 328 326
315 317 318 318 321 322 318 320 318 316 314 313 314 315 316 317 317 317 318 319 319 319 319 320 321 321 321 322 325 329 329 329 329 329 328 327 328 328 328 329 329 329 329 328 329 329 329 328 328
317 319 322 322 322 322 315 318 318 314 312 312 312 313 313 314 314 314 314 314 314 314 315 316 317 319 321 323 325 327 328 328 329 329 329 329 330 329 328 328 328 329 328 329 329 328 328 328 328
319 320 321 321 321 318 314 319 317 314 315 316 315 314 313 312 311 310 310 311 312 312 313 312 312 312 313 313 313 316 323 326 328 328 329 329 329 329 328 329 328 328 328 329 329 329 329 328 327
318 321 318 317 306 313 316 314 313 312 311 312 312 312 312 311 310 309 309 310 310 311 311 311 311 311 311 312 312 312 311 311 313 317 321 323 325 326 327 328 328 328 328 329 329 328 328 329 328
319 318 320 318 322 321 316 314 316 313 313 309 308 311 311 311 311 308 309 309 309 309 310 310 310 310 310 310 311 311 311 311 311 311 313 316 320 322 323 323 323 322 324 325 326 327 327 327 327
319 316 315 317 317 319 315 313 308 310 310 309 309 311 312 311 308 308 308 307 307 307 307 307 307 306 307 307 309 309 310 311 311 311 311 310 311 314 318 321 322 323 324 324 325 326 326 326 326
314 316 315 318 320 317 314 315 307 306 308 310 309 310 309 306 306 306 305 305 305 305 305 304 304 305 304 304 304 305 307 309 309 310 310 310 311 311 310 311 315 321 322 323 324 325 326 327 328
Wind_Speed
17 16 10 2 4 5 1 1 1 2 1 1 1 3 5 4 3 3 8 12 11 14 17 16 11 8 6 4 3 1 1 3 12 12 9 11 7 8 8 8 13 12 11 11 10 13 14 14 13
20 14 5 3 5 3 3 2 5 2 6 12 8 5 3 0 3 4 13 13 7 11 14 13 11 8 5 3 2 2 4 6 14 14 9 7 11 7 7 9 12 11 10 9 9 11 12 11 12
17 10 4 4 3 3 4 3 4 3 6 4 3 3 2 2 4 5 5 12 12 12 12 11 9 6 4 3 3 4 6 6 11 14 10 11 8 6 6 7 11 11 9 10 8 10 9 8 9
13 4 5 4 2 1 3 5 4 4 2 3 6 4 2 2 2 6 7 12 13 12 13 11 9 6 5 4 3 5 7 9 10 14 10 13 10 7 6 3 8 9 8 7 8 7 7 5 10
9 4 4 3 4 3 2 5 10 3 3 3 4 3 1 4 5 7 9 13 13 13 13 12 10 8 7 5 5 5 7 7 10 11 13 10 13 10 7 8 10 9 8 8 7 6 6 7 7
4 3 4 1 4 5 2 5 4 3 3 4 2 6 3 5 7 9 12 12 11 11 14 14 12 9 8 7 5 6 7 6 8 5 11 12 12 9 8 9 10 8 8 6 6 5 4 6 6
4 3 3 2 3 4 1 6 3 5 3 2 3 3 2 8 7 9 12 12 11 12 14 13 13 12 10 9 7 7 8 7 7 7 10 12 11 13 10 9 9 8 7 7 6 5 5 5 6
2 4 3 1 2 3 4 2 2 5 4 5 3 3 3 9 10 13 14 14 13 14 15 12 14 15 13 12 10 9 9 9 8 8 8 11 11 11 15 13 9 8 10 7 6 6 5 5 6
1 4 2 3 2 2 6 4 3 1 4 5 4 4 3 6 13 18 18 19 17 17 18 17 16 18 16 14 13 12 11 11 10 10 10 11 13 13 12 13 13 12 10 9 8 7 7 7 7
2 3 8 3 2 2 1 2 5 1 1 3 5 6 6 9 15 19 21 23 23 22 21 21 19 19 18 18 17 16 14 12 12 12 12 11 12 14 14 14 14 13 13 11 10 9 9 9 8
2 4 5 3 2 0 1 0 3 1 3 6 4 6 7 12 16 19 20 22 22 20 21 20 21 19 19 20 19 19 18 16 14 14 14 13 14 14 15 16 15 13 13 14 13 12 10 10 10
1 4 4 2 2 1 2 2 3 5 5 5 8 9 10 13 18 19 20 21 23 23 22 21 19 22 22 21 21 21 21 20 18 16 16 17 16 17 17 17 16 15 14 15 15 14 13 13 13
3 3 4 7 5 6 7 8 6 12 11 14 15 11 12 15 17 20 19 21 22 25 23 23 22 22 25 25 22 22 22 21 20 19 19 19 19 19 18 17 18 17 17 17 17 16 16 16 15
2 4 7 4 8 7 5 6 6 9 6 11 15 16 14 17 18 22 23 24 25 25 25 24 26 25 24 28 28 25 23 21 21 21 21 21 21 20 21 20 20 19 19 18 19 19 19 18 18
3 4 7 4 5 5 4 6 8 22 17 17 16 20 22 23 22 27 26 26 24 24 24 26 27 27 27 26 30 30 27 26 25 23 22 23 23 22 21 22 22 21 19 20 21 22 23 23 22
3 3 4 2 6 5 5 9 3 9 15 21 23 22 24 26 29 26 27 29 27 27 27 25 28 30 30 28 27 31 31 30 28 27 25 25 25 25 25 24 23 22 21 22 24 24 25 26 25
3 6 5 4 4 3 5 3 6 10 16 22 23 25 28 32 29 28 29 30 29 28 28 28 29 31 31 31 29 28 33 32 31 30 30 29 28 28 28 27 25 23 24 25 26 27 28 28 27
10 5 4 6 2 2 5 12 8 23 22 24 29 30 30 30 26 24 30 33 31 29 28 30 31 30 33 34 34 31 32 36 34 33 33 32 32 31 30 30 29 26 28 29 29 30 29 30 29
2 3 5 1 0 2 5 10 13 22 27 26 31 36 36 40 38 34 33 29 35 32 33 34 35 33 32 34 37 39 37 36 38 36 35 34 34 34 33 33 32 32 32 32 32 32 32 32 31
6 8 7 1 2 1 6 20 15 17 26 30 31 35 44 45 43 42 38 32 30 35 34 35 36 36 37 35 34 37 39 38 36 39 37 35 36 36 37 36 36 35 34 35 35 35 36 36 33
13 17 10 7 2 4 2 20 22 19 27 34 32 37 43 44 47 47 44 40 38 36 36 38 38 37 39 37 37 38 39 41 42 41 40 39 38 37 38 39 38 38 35 37 37 37 38 39 38
14 7 6 8 4 10 6 14 15 10 9 11 25 33 38 40 43 41 42 43 40 41 40 39 39 39 38 39 41 41 40 42 39 38 40 40 38 37 37 38 40 41 41 39 38 37 39 39 42
10 7 11 7 6 3 14 7 5 3 19 18 19 30 26 30 30 30 29 31 28 28 32 37 36 32 32 38 42 43 44 43 41 42 40 39 39 39 39 38 38 40 43 45 44 43 40 41 42
3 4 2 3 5 10 27 10 20 15 17 6 6 14 12 8 5 6 6 6 9 11 14 18 22 22 26 31 36 40 41 42 43 43 42 40 39 39 38 39 39 38 39 43 45 48 47 45 44
8 6 4 6 7 10 5 9 23 19 8 12 9 2 4 10 16 19 16 13 10 7 5 3 1 3 9 16 22 28 31 34 38 40 43 44 45 44 41 39 39 39 38 38 41 45 46 48 48
13 17 7 8 5 4 1 9 12 14 26 31 27 9 9 17 20 20 19 18 16 14 14 12 9 7 5 3 5 11 19 27 32 36 39 43 44 44 43 44 42 41 39 38 37 39 42 44 47
5 13 15 3 2 1 5 7 10 9 8 2 17 20 17 17 20 21 19 19 16 14 12 10 10 10 9 7 7 9 11 12 19 25 30 36 39 39 39 41 40 39 38 37 38 39 41 41 43
8 3 8 6 9 8 5 6 9 5 5 6 8 19 16 18 19 20 21 20 17 15 13 9 10 14 13 11 11 12 14 14 15 17 21 24 28 32 36 38 38 38 38 38 37 40 41 42 43
6 5 5 4 5 5 2 5 4 8 8 13 13 23 19 17 20 20 20 18 17 14 13 14 14 17 17 18 17 15 15 16 17 18 19 21 23 28 30 32 36 38 38 38 39 41 41 43 42
2 9 8 2 1 1 1 6 9 9 2 8 14 14 17 21 22 19 18 17 17 17 16 17 17 18 20 20 21 21 21 19 20 21 23 23 23 22 25 28 33 35 37 39 41 43 44 45 45
Wind_Direction
348 351 345 360 56 64 9 229 256 133 91 13 151 138 142 90 150 205 152 160 155 172 167 173 188 197 200 214 227 209 182 158 137 129 139 139 130 131 126 138 119 117 112 107 111 108 112 110 103
347 353 1 59 80 72 283 271 181 199 128 111 91 80 61 92 145 160 156 165 163 185 178 185 190 195 199 201 199 197 174 160 156 142 159 143 151 141 141 139 124 120 119 114 112 123 128 117 110
345 355 36 79 97 150 188 208 202 143 151 167 110 68 109 170 194 187 184 180 176 194 194 190 192 192 188 188 203 202 172 170 167 152 154 145 145 173 161 138 139 132 129 116 115 132 137 144 110
346 3 60 75 359 260 222 183 198 141 129 121 135 77 95 186 217 185 190 182 186 198 196 197 197 196 188 183 184 187 172 165 169 158 150 150 170 185 169 149 156 138 139 130 115 132 145 141 106
354 32 47 64 321 284 311 172 172 177 183 153 163 178 174 155 199 217 197 184 193 193 200 202 203 201 197 193 181 186 180 168 171 166 153 172 186 206 223 183 167 158 146 140 137 141 145 155 148
34 53 53 47 304 303 314 169 177 219 171 158 143 147 180 193 221 213 205 187 188 211 199 202 209 210 210 206 199 184 188 180 180 173 173 167 177 187 208 189 188 175 148 149 146 149 160 180 190
93 77 170 209 281 315 220 185 202 200 184 209 172 125 253 189 209 195 195 199 208 215 217 212 212 216 217 219 212 201 186 196 199 200 189 187 192 194 209 190 194 190 171 172 166 162 169 189 209
67 92 121 263 293 283 346 146 70 175 213 136 206 207 262 204 197 196 197 206 224 233 228 225 228 223 223 221 220 216 208 207 212 208 203 210 202 203 213 221 201 210 193 191 191 191 194 204 222
70 67 157 198 214 266 356 31 42 105 185 179 199 261 276 199 195 198 201 207 213 227 235 241 241 230 228 229 226 226 226 222 224 223 217 217 219 216 216 219 196 202 205 201 208 208 213 221 225
88 118 208 218 195 180 48 64 358 6 297 262 262 272 277 206 207 207 211 214 217 223 233 245 242 233 231 233 233 231 235 240 237 237 233 227 223 228 234 228 226 217 215 211 220 221 224 231 231
167 200 215 233 231 310 14 310 352 82 268 244 286 314 267 208 215 223 226 228 234 237 238 242 240 236 238 238 238 236 237 239 242 241 242 241 238 236 238 236 237 235 226 219 226 231 234 238 242
277 243 219 253 245 266 265 267 291 234 250 235 296 288 275 244 229 235 237 237 237 239 244 242 242 245 245 242 242 244 243 243 243 244 244 246 246 244 243 243 241 241 234 231 234 238 242 245 247
203 276 244 262 260 275 275 248 243 253 260 277 285 279 268 257 254 245 247 246 240 243 245 242 241 243 251 246 243 245 244 246 248 248 248 249 250 249 246 244 240 242 240 240 242 244 249 252 254
226 276 282 284 256 256 240 261 200 257 242 273 281 284 278 264 263 252 244 246 243 247 249 245 244 246 249 251 248 247 247 249 250 252 253 253 253 251 249 248 246 246 248 250 249 249 252 257 257
243 314 314 232 234 243 241 287 226 264 266 272 276 277 272 267 263 259 258 256 259 262 255 250 248 247 249 251 252 250 249 250 251 255 258 256 255 252 252 251 251 252 253 253 251 250 250 253 254
197 174 250 245 220 252 159 257 272 292 290 283 282 278 274 276 266 263 261 257 260 259 257 254 250 249 249 249 251 252 251 251 253 255 258 258 258 257 256 256 255 254 254 254 252 253 253 255 255
223 241 222 285 43 275 185 247 225 303 306 293 289 287 280 277 264 261 258 258 262 262 258 255 250 250 251 251 251 253 257 254 254 256 257 258 259 258 257 260 261 258 257 255 254 254 254 257 258
226 238 241 205 298 338 275 270 267 281 287 286 288 283 277 275 269 270 265 257 260 261 259 259 256 253 253 250 251 251 254 258 255 254 255 257 259 261 260 261 261 260 258 257 254 255 255 259 261
41 258 235 84 293 347 272 281 278 289 289 284 283 281 281 272 269 269 269 267 254 253 258 258 258 258 251 250 249 250 251 254 256 255 256 257 258 259 260 261 261 260 258 260 259 259 258 258 259
229 257 254 274 275 222 309 289 286 282 280 277 273 274 276 271 270 261 259 262 260 254 253 253 257 258 255 254 257 255 257 258 261 262 262 262 261 260 260 261 262 262 262 261 260 257 258 259 259
232 236 243 254 214 268 7 280 281 274 254 268 268 273 274 266 267 265 257 257 257 257 256 257 261 260 261 258 257 257 254 257 257 259 262 261 262 262 262 262 263 265 266 264 263 262 259 260 261
238 176 184 203 194 255 150 280 274 292 270 258 274 280 273 273 273 274 268 258 259 262 267 266 262 262 263 258 254 256 260 258 266 269 270 269 271 271 270 268 265 265 266 265 267 268 263 260 259
243 166 198 209 232 313 241 251 281 311 286 279 264 273 289 284 271 273 271 270 271 271 272 269 264 272 269 263 258 259 259 264 268 268 271 273 275 274 274 274 271 268 267 267 266 268 268 264 262
123 98 134 180 225 241 249 217 273 262 253 271 268 304 314 320 271 249 271 282 271 267 273 252 255 258 260 261 264 264 265 267 268 270 272 277 279 279 278 278 275 275 272 269 268 267 268 268 266
176 151 235 232 203 242 246 193 241 263 253 249 264 316 102 98 98 95 95 91 84 75 63 59 108 227 262 270 272 274 272 273 274 275 276 277 278 279 282 283 282 280 282 280 275 271 269 267 266
199 203 215 232 221 238 58 213 244 238 263 244 255 210 136 114 98 90 87 86 80 74 69 66 76 69 60 13 324 290 279 275 276 278 278 279 280 282 284 284 284 284 284 282 278 275 273 272 269
171 223 230 266 93 176 219 276 293 253 267 259 195 163 144 110 93 82 82 83 80 75 64 47 39 40 29 8 347 342 335 304 284 279 280 283 284 284 285 286 287 287 285 282 281 277 273 273 272
205 351 212 204 223 229 240 263 244 329 244 171 158 158 134 110 93 84 87 82 76 70 63 47 29 24 20 11 358 345 338 332 327 313 296 285 281 284 286 287 287 287 287 286 283 280 277 271 271
176 210 255 242 188 178 224 252 252 272 197 178 171 153 131 96 92 92 86 78 71 65 56 46 36 26 22 21 14 357 342 338 337 331 324 313 301 291 283 285 287 287 285 285 282 279 278 275 275
278 207 186 243 187 222 218 260 351 340 291 144 144 125 82 97 96 90 82 76 64 54 45 39 32 25 19 13 8 6 1 354 344 339 335 328 318 310 302 292 282 281 285 285 283 281 281 280 277